Regional Weather Roundup
Issued by NWS Green Bay, WI

Home | Current Version | Previous Version | Text Only | Print | Product List | Glossary Off
Versions: 1 2 3 4 5 6 7 8 9 10 11 12 13 14 15 16 17 18 19 20 21 22 23 24 25 26 27 28 29 30 31 32 33 34 35 36 37 38 39 40 41 42 43 44 45 46 47 48 49 50

000
ASUS43 KGRB 200210
RWRGRB

NORTH-CENTRAL AND NORTHEAST WISCONSIN REGIONAL WEATHER ROUNDUP
NATIONAL WEATHER SERVICE GREEN BAY WI
900 PM CDT FRI SEP 19 2014

WIZ005-009-010>012-018-019-200300-
NORTH CENTRAL WISCONSIN

CITY           SKY/WX    TMP DP  RH WIND       PRES   REMARKS
IRONWOOD       CLOUDY    66  57  72 SW12G20   29.64S
MANITOWISH WTR CLOUDY    64  56  75 SW10G18   29.71S
ARBOR VITAE    CLOUDY    65  55  69 SW14G21   29.72R
EAGLE RIVER    CLOUDY    65  52  62 SW12G20   29.72R
LAND O LAKES   CLOUDY    65  54  66 SW10G16   29.73R
RHINELANDER    CLOUDY    64  53  67 SW12G25   29.75F
PHILLIPS       CLOUDY    65  57  75 S14       29.72R
ANTIGO         MOCLDY    63  53  70 S14       29.79F
TOMAHAWK       CLOUDY    64  54  70 S6        29.75S
MERRILL        CLOUDY    65  55  69 S10       29.76F
$$

WIZ013-073-200300-
NORTHEAST WISCONSIN

CITY           SKY/WX    TMP DP  RH WIND       PRES   REMARKS
IRON MOUNTAIN  CLOUDY    65  51  60 S14G24    29.71F
MARINETTE      CLOUDY    63  52  67 SW12      29.81F
OCONTO         CLOUDY    64  55  72 S3        29.82S
$$

WIZ017-030-035>037-045-200300-
CENTRAL WISCONSIN

CITY           SKY/WX    TMP DP  RH WIND       PRES   REMARKS
MEDFORD        CLOUDY    64  55  71 S10G17    29.76F
WAUSAU         MOCLDY    66  53  63 S14G23    29.77F
MOSINEE        CLEAR     64  55  72 S13G18    29.80F
MARSHFIELD     MOCLDY    66  54  65 S13       29.79F
WISC RAPIDS    CLOUDY    66  53  63 S6        29.83F
STEVENS POINT  MOCLDY    64  51  63 S9        29.82F
WAUPACA        MOCLDY    68  51  54 S8        29.83F
SHAWANO        CLOUDY    68  52  56 SW3       29.83S
CLINTONVILLE   MOCLDY    64  52  63 S5        29.83S
$$

WIZ038-039-048-051-200300-
FOX VALLEY

CITY           SKY/WX    TMP DP  RH WIND       PRES   REMARKS
NWS GREEN BAY  CLOUDY    67  51  56 SW9       29.83R
APPLETON       MOCLDY    66  48  52 S16G23    29.84S
OSHKOSH        CLEAR     66  51  58 S14       29.83F
FOND DU LAC    CLEAR     66  49  54 S20G29    29.84F
$$

WIZ022-050-052-200300-
EAST CENTRAL WISCONSIN

CITY           SKY/WX    TMP DP  RH WIND       PRES   REMARKS
STURGEON BAY   CLOUDY    63  52  67 S14G20    29.85R
MANITOWOC      PTCLDY    61  53  75 S10       29.86F
SHEBOYGAN      PTCLDY    62  50  64 S15       29.87S
$$

LMZ563-521-522-541>543-200300-
LAKESHORE

STATION/POSITION TIME  TEMP    WIND        PRES    VSBY  WAVE
                       AIR SEA DIR/SP/G                  HT/PER
                 (UTC) (F)     (DEG/KT/KT) (MB)    (MI)  (FT/S)
SHEBOYGAN LKSHOR 0200   63 54  190/ 24/ 27 1011.5F
KEWAUNEE LKSHORE 0200   62     190/ 18/ 22 1009.9R
NORTHPORT PIER   0200   62     170/ 10/ 19 1010.2R
N MID LAKE BUOY  0200   62 58  200/ 25/ 31 1009.4R        10/ 8
SISTER BAY LKSHO 0100          190/ 24/ 33   N/A
CHAMBERS ISLAND  0200   62     170/  7/ 15 1010.2R
MENOMINEE LKSHOR 0200   64     190/  9/ 17 1010.5F
$$


USA.gov is the U.S. government's official web portal to all federal, state and local government web resources and services.